Location: Unspecified
(48.8656°N, 0.0000°E)
Time: 18:07:56
(UTC+00:00)

Transit 2A Rocket - Pass Details

Date: 24 June 2019
Orbit: 588 x 915 km, 66.7° (Epoch: 15 July)

Event Time Altitude Azimuth Distance (km) Brightness Sun altitude
Rises 10:46:06 0° 233° (SW) 3,542 8.4 60.4°
Reaches altitude 10° 10:48:45 10° 239° (WSW) 2,597 7.9 60.7°
Maximum altitude 10:54:38 50° 313° (NW) 1,131 6.3 61.3°
Drops below altitude 10° 11:00:17 10° 29° (NNE) 2,488 7.6 61.8°
Sets 11:02:46 0° 35° (NE) 3,382 8.2 62.0°
